Regional Weather Roundup
Issued by NWS Northern Indiana

Home | Current Version | Previous Version | Text Only | Print | Product List | Glossary Off
Versions: 1 2 3 4 5 6 7 8 9 10 11 12 13 14 15 16 17 18 19 20 21 22 23 24 25 26 27 28 29 30 31 32 33 34 35 36 37 38 39 40 41 42 43 44 45 46 47 48 49 50

000
ASUS43 KIWX 011700
RWRIWX

KIWX WEATHER ROUNDUP
NATIONAL WEATHER SERVICE NORTHERN INDIANA
1200 PM EST SUN FEB 01 2015

NOTE: "FAIR" INDICATES FEW OR NO CLOUDS BELOW 12,000 FEET WITH NO
SIGNIFICANT WEATHER AND/OR OBSTRUCTIONS TO VISIBILITY.

* THESE STATIONS ARE NOT UNDER NWS QUALITY CONTROL. THEY ALSO MAY NOT
  REPORT WEATHER SUCH AS PRECIPITATION OR FOG.

INZ001>027-011800-
NORTHERN INDIANA

CITY           SKY/WX    TMP DP  RH WIND       PRES   REMARKS
GARY*          SNOW      34  30  86 NE12      29.85F VSB 1/4 WCI  25
SOUTH BEND     SNOW      29  27  92 E13G21    29.89F VSB 1/2 WCI  19
GOSHEN         SNOW      29  27  92 E18       29.89F VSB 1/4 WCI  16
ANGOLA*        CLOUDY    25  21  86 E14       29.92F VSB 3/4 WCI  13
FORT WAYNE     SNOW      33  32  96 E13       29.90F VSB 1/2 WCI  24

$$
INZ028>050-011800-
CENTRAL INDIANA

CITY           SKY/WX    TMP DP  RH WIND       PRES   REMARKS
LAFAYETTE      SNOW      32  31  96 E10       29.79F VSB 1/2 WCI  24
KOKOMO*        CLOUDY    34  30  86 SE13      29.83F VSB 1/2 WCI  25
MUNCIE*        LGT SNOW  35  31  85 SE8G18    29.85F FOG     WCI  29
INDIANAPOLIS   LGTSLEET  30  30 100 E9        29.80F FOG     WCI  22

$$
MIZ043>046-050>051-056>058-064>065-071>073-077>080-011800-
SOUTHWEST LOWER MICHIGAN

CITY           SKY/WX    TMP DP  RH WIND       PRES   REMARKS
BATTLE CREEK   SNOW      22  17  81 NE14      29.98F VSB 1/2 WCI   9
BENTON HARBOR  SNOW      22  20  92 E16G25    29.92F VSB 1/2 WCI   8
COLDWATER*     SNOW      24  22  91 E13G21    29.95F VSB 1/2 WCI  13
HILLSDALE*     SNOW      24  22  92 E17       29.95F VSB 1/4 WCI  10
HOLLAND        HVY SNOW  19  14  81 E17G24    30.02F VSB 1/4 WCI   4
GRAND RAPIDS   SNOW      17  12  80 NE18G31   30.04F VSB 1/2 WCI   1
KALAMAZOO      SNOW      22  18  85 NE7G20    29.98F VSB 1/4 WCI  13
STURGIS*       SNOW      27  25  93 E17G25    29.92F VSB 1/2 WCI  14
THREE RIVERS*  SNOW      26  23  90 NE14      29.95F VSB 1/2 WCI  14

$$
OHZ001>008-015>018-024>025-011800-
NORTHWEST OHIO

CITY           SKY/WX    TMP DP  RH WIND       PRES   REMARKS
DEFIANCE       LGT SNOW  29  25  85 NE12      29.95F FOG     WCI  19
FINDLAY        LGT SNOW  34  31  88 E9        29.94F FOG     WCI  27
TOLEDO EXPRESS LGT SNOW  26  23  88 E16G25    29.98F VSB 3/4 WCI  14
TOLEDO METCALF SNOW      28  24  85 NE16G23   30.00F VSB 1/2 WCI  16
LIMA           LGT RAIN  35  32  88 E13       29.90F FOG     WCI  26

$$
AND FOR LAKE MICHIGAN COASTAL AND OPEN LAKE BUOY OBSERVATIONS

STATION/POSITION TEMP    WIND        PRES    VSBY  WAVE
                 AIR SEA DIR/SP/G                  HT/PER
                 (F)     (DEG/KT/KT) (MB)    (MI)  (FT/S)
CALUMET HARBOR    30      60/ 18/ 22   N/A
MICHIGAN CITY     30      60/ 12/ 15   N/A
SAINT JOSEPH      24      30/  5/ 14 1014.6F

$$
&&



USA.gov is the U.S. government's official web portal to all federal, state and local government web resources and services.